Regional Weather Roundup
Issued by NWS

Home | Current Version | Previous Version | Graphics & Text | Print | Product List | Glossary On
Versions: 1 2 3 4 5 6 7 8 9 10 11 12 13 14 15 16 17 18 19 20 21 22 23 24 25 26 27 28 29 30 31 32 33 34 35 36 37 38 39 40 41 42 43 44 45 46 47 48 49 50
000
ASUS43 KOAX 300802
RWRNE

WEATHER ROUNDUP FOR NEBRASKA
NATIONAL WEATHER SERVICE OMAHA NE
300 AM CDT MON MAR 30 2015

NOTES: SATELLITE DATA IS BEING USED TO AUGMENT CLOUD COVER ABOVE
       12000 FEET.
       "FAIR" INDICATES FEW OR NO CLOUDS BELOW 12,000 FEET WITH NO
       SIGNIFICANT WEATHER AND/OR OBSTRUCTIONS TO VISIBILITY.

  * THESE STATIONS DO NOT REPORT WEATHER SUCH AS RAIN...SNOW OR FOG.

NEZ001>004-019>022-054>056-300900-
NEBRASKA PANHANDLE

CITY           SKY/WX    TMP DP  RH WIND       PRES   REMARKS
SCOTTSBLUFF    CLEAR     37  23  56 E7        30.07F WCI  32
ALLIANCE       CLEAR     34  24  67 S10       30.06F WCI  26
CHADRON        CLEAR     30  22  72 S3        30.04F
KIMBALL        CLEAR     39  22  49 W7        30.09F WCI  34
SIDNEY         CLEAR     45  22  40 SW17      30.09F
$$

NEZ057>060-069>072-079>082-300900-
SOUTHWEST NEBRASKA

CITY           SKY/WX    TMP DP  RH WIND       PRES   REMARKS
NORTH PLATTE   PTCLDY    41  17  38 S9        30.12F
IMPERIAL         N/A     42  20  41 S7        30.13F
LEXINGTON      PTCLDY    45  15  29 S8        30.13F
MCCOOK         PTCLDY    46  15  28 S13       30.14F
OGALLALA       CLEAR     40  20  44 W7        30.11S
$$

NEZ005>010-023>029-035>040-094-300900-
NORTH CENTRAL NEBRASKA

CITY           SKY/WX    TMP DP  RH WIND       PRES   REMARKS
VALENTINE      MOCLDY    43  23  45 SW3       30.05F
AINSWORTH      MOCLDY    43  19  38 S8        30.06F
BROKEN BOW     PTCLDY    40  17  39 SW3       30.12S
O`NEILL        MOCLDY    41  23  49 SW8       30.08F
ORD            PTCLDY    32  19  58 CALM      30.11S
$$

NEZ041-046>049-061>064-073>077-083>087-300900-
SOUTH CENTRAL NEBRASKA

CITY           SKY/WX    TMP DP  RH WIND       PRES   REMARKS
GRAND ISLAND   MOCLDY    43  20  39 S8        30.14F
AURORA         PTCLDY    39  20  47 SW8       30.13F WCI  33
HASTINGS       MOCLDY    44  16  32 S8        30.14F
HEBRON         PTCLDY    34  24  68 W3        30.17R
HOLDREGE       CLOUDY    46  14  26 S10       30.14F
KEARNEY *      CLOUDY    43  16  33 SW8       30.15S
YORK           PTCLDY    37  23  56 SW7       30.15S WCI  32
$$

NEZ011>018-030>034-042>045-300900-
NORTHEAST NEBRASKA

CITY           SKY/WX    TMP DP  RH WIND       PRES   REMARKS
NORFOLK        CLEAR     34  26  72 CALM      30.10R
ALBION         PTCLDY    41  17  37 SW5       30.12R
BLAIR          PTCLDY    41  23  49 SW5       30.11S
COLUMBUS *     CLEAR     30  19  64 CALM      30.14R
FREMONT        PTCLDY    35  25  65 CALM      30.10F
WAYNE          PTCLDY    30  22  72 S5        30.10R WCI  25
$$

NEZ050>053-065>068-078-088>093-300900-
SOUTHEAST NEBRASKA

CITY           SKY/WX    TMP DP  RH WIND       PRES   REMARKS
LINCOLN        CLEAR     34  25  69 S5        30.14F WCI  30
OMAHA EPPLEY   PTCLDY    38  26  62 S6        30.12R WCI  33
BEATRICE       PTCLDY    33  28  80 SE3       30.15F
FALLS CITY     CLEAR     36  27  69 CALM      30.16R
NEBRASKA CITY  CLEAR     38  23  54 SW12      30.14S WCI  31
PLATTSMOUTH    CLEAR     41  21  46 SW6       30.13S
$$

NEZ044-045-051>053-067-300900-
OMAHA AREA

CITY           SKY/WX    TMP DP  RH WIND       PRES   REMARKS
OMAHA EPPLEY   PTCLDY    38  26  62 S6        30.12R WCI  33
BLAIR          PTCLDY    41  23  49 SW5       30.11S
FREMONT        PTCLDY    35  25  65 CALM      30.10F
MILLARD        CLEAR     35  28  76 CALM      30.13R
PLATTSMOUTH    CLEAR     41  21  46 SW6       30.13S
WAHOO          FAIR      34  22  61 SW3       30.11F
$$


USA.gov is the U.S. government's official web portal to all federal, state and local government web resources and services.